GFSSW_925_thetae_144.txt.gz
Theta_e
317 320 322 323 323 322 323 322 322 323 322 321 321 320 319 318 319 315 313 312 312 313 312 315 314 316 311 309 310 308 311 313 316 317 318 319 321 318 317 319 317 319 319 321 320
318 320 322 322 323 322 322 322 321 322 323 322 322 321 319 316 314 314 313 313 312 313 314 316 315 314 311 311 310 310 311 314 313 316 318 317 319 318 319 319 320 321 320 320 317
321 321 322 322 322 323 322 322 321 322 322 322 322 321 319 316 313 316 313 313 313 312 313 315 316 314 315 315 314 310 312 312 315 316 314 315 315 314 317 319 320 323 320 317 316
322 322 322 322 322 323 323 323 322 322 322 322 321 319 318 311 322 316 315 314 313 311 312 313 312 314 315 317 315 317 314 313 314 315 315 316 313 317 315 318 318 320 318 315 314
324 324 324 323 323 323 323 323 322 322 322 322 321 317 314 311 316 319 313 313 312 312 311 311 313 312 314 313 312 314 314 313 312 312 313 313 314 314 313 316 316 316 315 314 312
324 324 325 325 325 324 324 324 323 322 322 322 320 316 307 318 319 315 313 313 312 311 310 310 311 311 312 313 314 312 312 312 312 313 313 314 314 313 314 314 315 315 314 312 311
323 324 324 325 325 325 325 324 322 319 318 316 316 308 307 315 321 322 320 315 311 309 308 310 311 311 312 313 312 313 313 312 313 315 315 312 314 313 313 314 315 314 312 310 310
323 324 322 325 325 324 322 318 315 312 309 309 308 305 307 319 318 317 316 312 312 309 309 310 310 310 312 311 311 312 313 314 313 314 315 313 314 312 313 315 314 312 311 310 309
321 321 320 319 318 316 314 313 311 308 305 307 306 306 311 314 312 314 312 310 309 309 309 311 310 310 312 312 311 310 313 313 313 312 313 312 314 312 314 316 314 312 311 309 308
315 314 313 312 310 308 307 306 303 304 307 308 309 309 311 316 311 311 310 310 309 309 309 309 307 310 309 310 312 311 311 311 312 312 310 310 309 310 314 315 315 312 309 309 308
313 312 311 311 310 310 311 310 311 311 309 312 311 312 311 310 311 310 309 308 308 309 309 309 310 311 310 311 311 311 310 311 311 311 311 309 308 308 309 314 313 310 310 309 307
311 312 312 311 310 311 311 309 309 307 311 309 308 307 309 310 311 311 309 308 307 308 308 310 310 309 310 310 311 311 312 311 310 310 312 310 310 309 307 313 314 313 311 310 307
310 311 311 311 310 310 307 309 307 306 309 310 309 311 311 310 311 311 309 307 307 307 309 309 310 310 310 310 312 311 312 311 311 310 310 310 310 309 307 311 312 313 312 310 309
310 310 310 309 308 306 306 309 307 306 310 310 310 309 310 310 312 311 311 308 308 308 308 308 308 309 311 311 310 311 310 311 310 311 310 308 310 307 308 310 313 313 312 310 309
311 311 309 308 305 304 306 308 307 306 313 311 310 309 310 313 311 309 310 309 311 308 308 310 309 309 310 311 311 312 310 310 310 310 311 310 311 310 310 308 312 313 312 310 309
310 310 309 307 305 305 305 306 307 306 306 311 310 310 313 312 313 310 311 310 309 310 310 310 308 308 309 309 310 310 311 312 309 310 312 311 310 311 309 312 310 312 312 311 309
309 309 308 307 305 305 305 306 307 309 306 310 310 311 312 312 312 309 312 313 312 313 314 313 312 310 311 312 310 309 311 312 314 313 316 311 311 312 310 311 309 311 312 311 308
308 309 308 306 306 305 306 306 307 307 308 308 307 307 310 310 310 311 309 312 311 310 313 315 318 312 310 312 313 313 313 316 317 317 315 311 314 313 311 310 310 310 312 309 307
308 308 307 306 305 305 307 310 306 306 306 305 306 307 307 307 310 309 308 307 308 310 313 314 313 309 311 312 312 314 315 314 316 315 319 313 309 310 315 315 313 312 310 309 306
305 303 302 306 307 306 307 307 307 305 305 305 307 307 308 307 309 309 310 311 314 310 309 311 313 310 309 310 311 313 312 317 318 323 323 319 316 314 313 314 313 312 310 308 305
300 294 298 304 306 303 306 305 306 305 305 306 307 306 307 309 308 308 310 313 314 313 312 311 309 309 309 309 310 311 314 315 317 320 324 324 318 312 313 312 312 312 310 307 305
289 289 299 304 304 300 304 304 305 304 304 305 305 306 306 308 308 309 309 313 311 313 315 313 316 316 313 309 308 309 310 312 317 319 319 320 320 312 313 310 311 311 307 304 303
289 290 298 302 303 300 302 303 304 305 304 306 306 305 306 308 308 307 310 311 310 311 312 312 313 315 309 310 310 311 311 311 312 314 317 320 319 313 314 313 312 310 305 304 302
288 292 295 298 295 296 299 300 302 303 304 304 306 305 306 306 306 307 308 310 310 310 311 311 313 313 313 312 312 312 311 310 311 315 315 315 314 313 313 315 312 307 305 303 301
286 286 292 295 296 298 298 298 299 299 301 302 303 304 305 306 306 306 305 306 309 310 309 309 308 311 310 308 309 310 311 309 311 311 314 315 315 313 314 315 313 309 306 304 301
287 289 292 292 295 297 297 295 297 297 298 298 302 301 303 305 304 304 305 308 309 308 308 307 307 308 303 307 308 311 310 309 309 311 315 312 311 312 310 309 311 309 307 305 303
291 292 290 289 294 295 294 296 297 296 296 298 298 299 299 299 300 300 299 303 304 304 307 308 308 307 308 306 307 310 307 309 310 311 311 310 310 309 309 310 310 310 309 308 305

GFSSW_925_thetae_150.txt.gz
Theta_e
314 316 319 320 321 322 322 321 321 320 322 322 322 322 323 323 323 321 315 315 315 312 313 315 318 317 315 316 318 319 321 321 322 322 323 324 325 326 334 332 336 335 336 340 333
312 313 316 319 321 322 322 322 322 321 321 321 322 322 323 322 319 320 314 314 314 312 315 315 318 317 317 316 318 320 321 320 322 322 323 324 325 326 329 333 334 333 332 335 330
312 312 314 317 320 322 322 322 322 322 322 322 322 322 322 322 319 319 314 316 313 313 315 315 316 318 316 318 317 319 319 320 320 320 321 321 322 325 327 332 334 335 336 334 332
314 314 315 318 320 321 322 322 322 322 322 322 321 321 322 316 320 318 317 316 313 313 315 315 317 319 317 317 319 318 318 319 319 320 320 321 321 324 326 328 329 331 334 335 335
320 320 320 320 321 321 322 322 322 322 322 321 321 321 320 324 325 322 321 314 313 314 317 315 317 317 319 318 318 318 317 318 319 319 319 320 321 322 324 326 324 327 332 335 336
323 323 322 322 322 322 323 323 323 322 322 322 322 321 318 325 322 319 318 313 316 318 319 316 318 317 317 318 318 318 318 318 318 318 319 319 320 320 321 323 326 329 332 334 336
323 323 323 323 324 324 324 323 323 323 323 322 321 316 315 324 322 319 318 317 317 318 320 316 314 316 317 318 318 317 318 318 318 318 318 318 319 319 321 324 326 329 331 333 333
323 323 323 323 323 323 323 324 323 323 320 320 316 311 318 321 318 319 318 318 317 317 316 315 312 315 316 317 317 318 318 320 319 317 318 319 317 318 321 323 325 328 329 330 330
324 323 323 324 323 323 323 321 320 315 313 311 311 313 322 318 317 316 317 318 313 310 312 312 313 316 316 318 321 320 321 320 319 318 318 319 318 319 321 322 322 325 327 329 329
323 323 322 321 322 322 319 316 312 306 308 311 310 315 318 322 316 312 312 312 312 312 313 314 316 319 319 321 324 323 321 321 320 319 317 318 319 319 320 321 322 323 325 327 328
320 320 320 320 320 316 311 306 312 314 310 319 318 319 317 316 312 313 311 311 312 314 317 316 319 321 322 321 321 320 319 320 319 317 316 318 319 319 318 320 322 323 324 326 326
315 314 314 314 309 309 310 314 315 313 320 315 315 316 315 314 317 316 310 313 313 316 315 315 318 319 319 318 319 319 318 320 320 318 316 318 319 319 318 317 318 321 322 324 325
313 312 311 309 310 310 309 311 309 308 318 318 316 317 317 315 317 319 314 315 316 319 317 321 323 318 317 318 317 319 320 321 321 319 317 318 320 321 320 318 317 317 319 321 323
312 312 313 312 311 311 310 311 310 309 316 320 313 314 314 315 317 315 316 317 318 318 320 321 319 320 320 319 318 321 320 317 318 319 324 318 323 323 322 319 316 316 317 318 320
311 311 311 312 309 309 310 311 310 307 326 313 312 311 313 316 315 313 313 316 319 318 317 320 316 315 317 319 318 319 317 317 318 320 322 321 321 323 320 320 319 316 317 318 319
310 310 310 308 308 307 309 307 308 314 319 313 313 314 315 315 314 313 314 313 314 318 319 319 317 314 315 313 313 315 316 317 317 319 323 322 322 324 323 319 318 318 316 317 318
310 310 310 308 309 306 307 309 314 316 307 310 313 313 314 315 315 313 315 316 317 319 321 320 319 316 315 316 316 314 317 322 322 321 323 320 320 322 321 318 317 317 318 319 318
311 310 308 307 306 307 309 313 316 308 308 308 309 309 313 313 312 313 315 316 315 315 317 319 320 317 317 316 318 318 318 322 327 326 324 317 320 320 319 318 318 318 318 318 319
311 308 307 306 305 308 313 316 307 308 308 308 308 309 310 310 312 312 313 312 314 314 316 318 317 314 314 313 315 317 318 317 321 322 325 322 321 320 318 319 318 318 319 319 318
308 304 302 307 305 308 311 312 310 308 307 307 309 309 311 310 310 311 313 315 315 313 314 315 316 313 313 312 313 315 316 321 322 326 325 320 321 322 319 318 318 319 318 318 318
306 307 300 305 305 308 310 311 309 307 307 309 309 309 309 309 309 309 312 313 312 311 312 314 316 315 313 314 314 314 315 315 317 321 323 319 318 316 318 318 318 316 316 317 317
300 307 300 304 305 303 309 310 306 307 307 308 308 309 309 308 308 307 308 310 312 311 311 312 314 314 312 312 310 311 312 314 319 318 321 321 318 315 316 314 312 313 313 314 314
301 302 298 302 308 308 305 308 307 307 308 308 309 308 308 308 308 308 308 312 311 309 310 310 311 311 308 310 311 313 309 310 311 314 316 318 315 313 312 311 310 313 314 314 315
301 303 300 299 300 307 308 308 307 305 307 307 308 308 308 308 308 308 308 309 309 309 309 309 309 312 311 308 309 309 308 308 311 314 311 310 309 308 308 309 310 313 313 314 315
299 301 301 306 303 305 305 303 306 305 304 305 306 307 306 305 305 306 306 306 306 308 309 309 312 312 311 309 308 309 309 309 310 310 312 310 309 309 309 310 311 312 312 312 313
300 300 299 300 302 302 301 301 301 300 301 301 301 301 303 303 302 303 306 306 305 306 309 308 312 308 309 309 309 309 308 309 310 310 309 310 311 310 310 310 310 310 310 312 311
294 295 299 298 301 301 301 299 299 299 298 299 300 301 300 301 301 301 300 300 301 303 304 306 307 307 308 307 309 310 309 309 309 309 311 314 312 310 309 309 309 310 311 311 312

GFSSW_925_thetae_153.txt.gz
Theta_e
315 317 319 320 321 322 322 322 321 321 320 320 321 321 321 322 320 320 321 317 316 315 317 319 319 318 318 318 319 321 321 323 324 324 324 326 326 327 334 334 339 341 339 345 342
314 315 316 318 320 321 322 322 322 322 322 321 322 322 322 322 321 320 317 320 315 316 320 319 320 319 319 319 319 320 322 323 323 324 323 324 325 326 330 335 334 337 336 344 340
314 313 314 316 318 320 321 322 322 322 322 322 322 322 322 323 321 320 314 320 316 316 320 320 319 320 319 320 320 319 320 321 322 322 322 323 323 325 327 330 332 336 339 341 340
313 313 313 313 316 319 321 322 322 322 322 322 322 322 322 322 320 320 315 320 317 316 319 321 322 321 321 319 320 320 319 319 319 320 321 322 323 323 325 327 328 331 336 339 340
312 312 312 313 315 319 321 322 322 322 322 322 322 322 322 324 323 320 321 318 317 317 320 322 322 322 321 320 320 319 319 319 319 320 320 320 321 322 323 325 327 328 337 339 340
316 317 318 318 319 320 321 322 322 323 323 322 322 322 322 327 321 323 320 318 317 320 323 323 323 322 322 322 322 321 320 320 320 320 320 319 320 320 322 323 326 327 330 336 338
321 321 321 321 322 322 322 323 323 323 323 323 323 319 323 326 323 324 320 322 323 321 324 324 321 321 323 322 322 321 321 321 321 320 319 319 319 319 320 322 324 327 330 334 336
321 322 323 323 323 323 324 323 323 323 322 322 320 316 322 323 323 323 322 321 322 323 322 322 321 319 322 322 322 321 322 323 321 321 320 319 319 320 320 321 323 325 329 331 333
322 322 323 323 323 323 323 324 323 321 318 317 315 318 326 320 320 321 320 322 322 323 319 318 318 319 322 322 325 325 324 323 323 321 320 320 320 321 321 321 323 324 326 329 332
322 322 323 323 323 323 323 321 319 314 310 312 314 320 322 323 322 318 317 319 316 315 317 316 318 322 322 324 327 327 326 325 323 322 322 321 321 321 321 322 323 323 324 326 329
321 322 323 323 322 321 318 310 316 317 313 321 322 324 322 319 316 317 316 316 317 318 323 320 322 325 325 325 325 326 326 325 324 323 322 321 322 322 322 322 321 322 322 323 326
321 321 322 320 319 318 315 316 316 314 322 321 320 321 320 319 321 320 315 317 318 321 322 324 324 324 324 324 324 324 325 326 324 324 324 323 323 323 323 323 321 321 322 323 324
319 321 319 318 313 310 313 313 311 313 320 323 322 321 321 320 322 322 319 319 320 320 322 323 324 323 323 322 324 325 325 326 326 325 324 324 325 325 325 324 324 322 321 322 323
318 318 315 311 311 311 312 312 312 312 321 322 319 319 319 318 320 319 319 321 321 322 322 323 322 323 324 326 326 326 324 324 324 324 326 325 330 326 325 324 323 322 322 320 321
314 315 314 313 314 314 314 313 311 312 329 321 317 314 316 318 318 316 317 319 322 323 320 324 323 321 322 324 324 325 322 322 323 324 325 326 327 325 324 324 323 322 320 320 320
312 311 311 312 313 315 313 312 310 319 325 318 316 315 316 317 318 316 316 317 319 322 323 321 320 319 319 318 317 320 319 321 322 323 327 325 325 325 325 322 321 320 320 320 321
312 312 312 311 313 312 311 310 318 324 314 316 316 316 316 318 317 316 319 319 320 322 324 323 322 321 319 318 318 318 320 325 326 326 326 322 324 324 323 321 320 320 320 321 321
310 310 311 312 311 312 311 316 321 317 316 312 313 315 316 316 316 316 317 319 318 319 321 323 324 321 322 321 320 322 321 324 328 326 325 325 324 323 322 321 320 320 320 321 321
310 310 310 308 311 312 315 319 316 315 313 312 311 313 314 314 314 316 317 317 318 317 319 319 319 317 318 318 319 320 321 320 323 325 327 323 323 323 322 321 320 319 319 319 320
308 306 304 306 310 312 315 316 313 310 310 311 312 312 313 313 314 315 316 315 315 315 316 318 319 317 316 314 316 317 318 323 323 326 324 320 320 320 321 321 320 318 316 315 317
307 306 301 305 308 311 314 314 311 310 309 309 310 311 312 312 313 314 315 316 315 313 314 316 317 317 315 316 316 316 317 318 319 323 324 322 320 319 318 317 317 315 313 313 315
308 304 301 304 307 302 314 311 308 310 309 310 311 310 311 311 311 311 313 313 312 312 313 313 315 317 317 314 314 313 315 317 321 320 321 323 323 318 316 315 314 312 311 313 314
308 303 300 302 309 310 309 310 309 309 309 309 310 310 310 310 309 309 309 312 311 310 311 312 312 314 311 311 311 311 312 312 313 315 317 320 317 313 312 312 311 310 310 312 314
306 306 301 300 302 309 309 309 311 309 309 309 310 310 310 310 309 310 309 311 310 309 309 308 309 310 311 310 310 313 313 311 311 315 314 313 312 311 310 309 309 310 311 312 313
305 306 306 306 306 308 309 309 309 312 309 309 310 310 310 311 309 309 309 310 309 309 308 309 313 311 310 309 309 308 308 309 309 309 312 310 310 309 309 309 310 310 311 311 311
302 303 303 305 305 307 307 310 310 307 307 309 308 308 308 308 306 306 307 307 308 308 309 311 311 311 311 309 309 308 308 308 308 308 308 309 309 309 309 309 310 310 310 310 311
298 300 303 303 306 308 307 306 305 303 301 302 304 302 303 303 304 304 304 304 305 305 307 308 309 308 308 305 307 311 309 308 308 308 308 313 310 310 309 309 310 310 310 311 311

GFSSW_925_thetae_156.txt.gz
Theta_e
316 317 318 320 321 321 322 322 321 321 321 321 320 321 320 321 319 321 320 318 318 319 321 320 321 320 319 319 319 320 320 321 322 323 325 326 326 326 326 332 337 340 343 346 346
316 316 317 318 320 320 321 322 322 322 322 322 322 321 320 320 320 321 317 319 320 318 320 321 321 320 321 320 320 319 321 321 323 323 324 324 324 325 326 330 336 339 346 345 344
315 315 315 316 317 319 320 321 322 322 322 322 322 321 320 320 322 319 316 321 321 320 319 320 321 321 321 321 320 320 320 320 321 321 321 321 322 323 324 326 331 335 344 345 343
315 314 314 314 314 316 318 320 322 322 322 322 321 322 321 323 321 319 319 317 319 320 319 320 322 322 322 321 322 320 320 320 320 319 319 320 321 322 322 324 327 329 337 343 342
314 314 314 313 313 313 316 319 321 322 322 322 322 322 322 322 322 320 322 321 319 319 320 321 322 322 322 321 321 320 320 319 320 319 319 320 320 320 321 323 324 327 335 342 342
312 313 312 312 312 313 316 320 321 322 322 322 322 322 323 327 321 321 322 321 320 319 321 323 325 324 322 322 322 322 322 321 321 321 320 320 319 320 320 321 322 324 335 340 340
312 312 313 314 315 317 319 321 322 322 323 322 322 321 323 325 322 323 324 323 322 323 323 323 324 324 322 323 323 323 322 322 321 320 320 320 320 319 320 320 321 322 325 333 338
314 315 317 318 319 320 321 322 323 323 323 323 321 317 322 323 323 324 324 324 324 324 324 324 324 324 322 322 323 324 323 324 322 322 321 321 321 320 321 320 320 322 325 327 332
316 318 320 321 322 323 323 323 323 323 322 320 318 317 325 323 323 323 323 323 323 324 324 323 323 324 322 323 324 324 325 325 324 324 323 321 321 321 321 321 321 321 324 325 330
318 320 321 322 323 323 323 323 323 319 316 314 316 319 321 325 323 322 320 320 323 321 321 319 321 323 323 324 328 326 326 327 327 325 324 323 323 322 322 321 322 323 324 325 327
320 321 322 322 323 323 322 317 312 314 317 322 323 322 324 322 319 320 319 320 319 318 321 320 322 324 325 325 325 325 326 327 326 326 326 325 324 323 323 322 323 323 323 323 324
321 322 323 322 323 322 321 315 318 316 324 320 320 321 321 322 322 322 319 319 321 323 322 324 325 324 324 325 326 326 327 326 325 325 326 325 325 325 324 324 324 324 323 323 323
321 319 321 320 321 319 315 316 313 315 322 322 322 323 322 322 324 323 322 320 321 322 323 325 325 325 324 324 326 325 325 326 326 325 325 326 326 325 325 325 325 324 324 323 323
320 319 321 321 315 314 313 314 314 316 323 323 323 323 323 322 324 321 321 323 322 323 323 323 323 323 323 324 324 326 326 327 325 326 328 325 328 326 326 326 325 326 325 325 323
320 320 321 318 312 313 314 314 313 317 331 322 322 318 320 323 320 319 319 322 323 324 323 324 324 324 325 324 324 326 325 326 324 324 326 325 326 326 326 325 322 322 322 322 322
321 321 319 314 313 315 315 313 315 319 327 323 318 318 321 321 320 318 317 318 320 322 323 323 323 322 322 321 320 320 321 322 322 323 329 325 325 326 324 322 322 321 322 323 323
319 318 314 313 316 314 314 313 317 325 320 321 318 317 319 320 320 318 319 320 322 323 324 323 323 323 322 321 320 318 320 324 327 329 329 324 325 325 324 322 321 322 322 322 322
314 313 311 312 314 313 312 316 323 320 320 315 318 318 319 319 319 319 319 321 319 320 321 322 325 323 323 323 323 321 321 325 327 330 327 325 327 324 324 322 322 320 320 320 321
310 310 311 312 314 311 315 317 321 319 318 317 315 318 318 318 318 319 318 319 320 319 320 320 321 320 319 320 322 324 322 322 327 326 329 325 323 321 323 323 321 320 317 316 316
310 308 309 311 313 313 315 318 318 316 312 317 317 316 317 317 316 317 318 317 318 317 317 319 320 318 317 316 317 320 319 325 326 328 326 321 321 322 321 320 319 319 316 314 315
308 308 302 307 312 314 314 317 316 313 311 312 315 315 314 315 315 315 316 316 316 315 315 317 319 318 317 317 316 317 318 320 321 325 325 323 321 320 319 317 318 317 314 312 315
304 305 301 307 311 303 314 315 313 312 310 311 311 313 313 313 314 314 315 317 316 314 315 315 317 318 318 316 316 317 319 319 325 322 324 323 322 319 318 315 313 312 311 311 315
304 301 301 303 310 308 311 314 314 313 311 310 310 311 311 312 313 313 315 314 313 312 313 313 314 315 313 312 313 314 314 315 316 320 319 321 321 315 313 313 312 311 310 310 312
307 305 299 299 300 309 311 313 312 310 310 309 309 309 311 311 311 310 313 313 311 311 309 310 312 313 313 310 311 311 311 312 314 319 317 316 313 313 312 311 311 310 310 310 311
308 308 306 306 304 307 309 311 311 311 311 310 311 312 310 311 310 310 311 313 310 310 309 309 313 312 311 309 309 308 308 308 309 311 314 313 311 310 310 310 310 310 309 310 310
305 307 305 308 307 308 308 310 309 309 311 311 312 311 310 311 311 312 310 311 311 310 309 310 313 313 310 309 308 308 307 306 306 306 308 309 309 309 309 309 309 309 310 310 310
302 302 304 306 307 308 309 309 310 309 307 310 310 309 310 309 309 306 306 308 309 311 310 310 311 309 309 307 308 310 308 307 307 307 308 309 310 310 310 310 311 310 310 310 311

GFSSW_925_thetae_159.txt.gz
Theta_e
316 316 317 318 320 320 321 321 321 321 321 321 321 320 319 319 316 316 321 318 317 318 318 320 321 320 320 317 316 316 313 315 317 319 320 321 321 320 321 327 338 342 346 346 348
316 316 316 316 318 319 320 320 321 321 321 321 321 321 320 319 320 321 318 319 320 319 318 319 318 319 316 317 315 313 313 315 317 317 317 317 317 317 321 322 339 349 346 346 345
316 316 316 315 316 317 318 319 320 321 321 321 321 321 319 319 322 316 317 318 320 320 319 319 319 319 319 317 317 315 314 316 317 319 315 315 317 318 317 322 324 350 348 345 343
316 315 315 315 315 315 315 317 318 320 321 321 322 321 320 321 318 318 319 321 321 319 318 319 318 319 319 318 317 317 316 316 316 318 316 315 316 318 318 319 320 334 345 344 343
316 315 315 314 314 314 313 314 317 320 321 321 322 322 322 323 323 319 320 322 321 319 319 319 320 320 320 321 319 320 318 317 316 316 317 317 316 317 316 316 316 319 343 342 341
316 316 315 314 314 313 313 313 317 320 321 322 322 322 322 326 319 320 321 323 321 320 320 320 322 324 323 321 319 320 321 319 319 318 318 319 317 316 316 316 316 317 341 341 340
312 314 314 314 313 313 313 314 319 321 322 322 322 321 321 323 319 319 321 321 323 322 323 323 323 324 324 323 321 321 322 322 321 319 319 318 317 317 316 315 314 315 330 339 339
312 312 312 312 312 313 314 318 320 321 322 322 321 319 321 320 319 323 322 323 323 323 324 324 324 323 324 322 320 321 322 323 321 320 319 317 319 317 315 314 315 314 315 337 338
315 313 312 312 313 316 319 321 321 322 323 322 319 317 321 320 322 323 323 323 324 324 323 324 324 323 323 322 321 322 322 322 322 322 322 318 320 318 318 317 316 316 315 320 336
318 315 314 314 317 320 321 322 322 322 320 316 316 318 318 320 322 323 323 323 322 322 323 323 321 321 321 323 326 325 323 322 322 322 323 322 320 318 318 318 318 316 315 316 323
320 317 316 317 320 321 322 320 315 316 314 319 319 320 320 323 321 320 319 319 322 318 318 318 320 321 321 322 323 323 324 324 323 323 323 322 322 320 320 320 318 318 316 317 318
320 319 318 319 321 322 322 317 319 315 320 317 320 320 319 320 323 321 320 319 320 319 317 320 320 320 321 322 324 324 325 325 323 323 324 323 323 320 321 320 320 319 318 316 316
320 321 319 320 322 321 320 319 316 316 320 321 320 321 321 321 323 323 319 318 319 321 322 322 323 322 323 323 324 323 324 323 324 325 321 321 323 321 321 320 320 320 319 318 316
321 320 320 321 320 316 317 317 315 317 322 321 322 321 322 322 323 321 322 321 320 321 320 321 321 322 323 324 322 324 323 325 326 327 325 321 325 323 322 322 320 320 319 319 318
322 321 321 321 317 316 318 315 317 316 326 322 321 320 321 324 322 322 321 321 323 322 321 323 323 323 324 323 323 323 321 322 324 322 321 322 324 322 322 322 322 321 320 319 318
323 322 320 320 317 317 316 316 315 317 321 324 318 319 321 324 321 317 319 318 320 322 321 321 321 321 321 320 319 318 319 319 320 322 324 322 323 322 321 320 321 320 319 319 317
322 322 320 317 317 316 314 315 316 321 320 323 320 319 321 325 323 318 318 319 320 324 324 322 322 321 321 322 318 317 318 323 322 324 324 323 324 322 322 321 320 319 318 318 318
320 319 317 316 317 315 315 315 321 319 322 321 318 318 322 321 322 321 318 319 318 319 319 324 324 322 321 322 321 320 319 323 327 325 326 322 326 325 321 320 318 316 312 312 314
318 314 313 314 316 315 317 320 321 320 318 317 319 319 319 319 319 319 318 319 318 318 320 320 320 319 319 321 322 322 320 318 325 324 319 323 321 323 323 322 320 318 311 309 311
313 311 308 312 314 313 318 318 319 317 318 319 319 318 319 319 319 318 318 317 317 317 317 318 320 318 316 315 316 319 320 324 325 328 330 325 322 323 321 320 318 315 312 308 312
310 309 303 307 313 314 316 314 317 316 315 315 319 319 317 318 318 317 317 317 316 315 315 316 318 318 316 316 315 315 318 319 321 321 322 321 318 318 317 316 314 313 312 308 311
304 306 301 305 314 303 310 315 315 315 310 311 311 318 315 314 317 316 316 317 315 314 315 315 316 318 317 316 314 316 318 318 316 320 317 315 317 316 314 313 311 309 309 307 311
298 300 301 304 311 308 311 314 314 314 311 311 311 312 311 312 313 315 317 315 313 313 313 312 313 312 313 315 314 314 315 314 316 317 320 322 317 314 312 310 308 309 308 306 309
301 304 299 299 300 309 308 311 314 312 313 310 310 310 309 311 311 314 317 315 314 310 309 310 311 311 311 310 309 309 309 309 313 314 313 314 314 312 311 308 307 307 307 305 305
302 303 304 304 303 308 309 311 311 313 311 310 310 310 311 311 311 314 314 313 312 309 309 309 308 309 310 311 311 310 309 308 308 308 311 310 309 309 308 306 306 305 305 306 305
302 305 306 305 304 305 309 310 311 312 310 311 311 311 311 311 312 312 314 314 311 310 309 309 308 306 308 309 310 309 307 307 307 306 306 305 305 305 305 305 306 306 306 306 307
301 302 304 306 305 306 307 308 310 308 308 309 310 310 311 304 303 303 307 310 310 311 310 309 308 308 310 308 308 308 308 307 307 306 307 307 306 305 306 307 306 307 307 308 307

GFSSW_925_thetae_162.txt.gz
Theta_e
315 316 316 317 318 319 320 320 320 320 320 320 319 319 318 317 315 315 318 317 317 319 318 317 317 319 319 315 315 313 312 312 316 317 317 316 316 316 317 326 347 346 345 345 347
314 315 316 316 317 318 318 319 319 319 319 319 320 319 318 318 317 320 317 318 320 319 319 318 317 317 316 316 315 312 310 312 314 316 317 315 315 315 317 317 348 348 345 347 345
314 315 316 316 316 316 317 318 318 318 319 319 320 320 319 318 319 317 318 319 320 320 319 318 318 317 319 316 317 314 313 313 314 316 316 315 315 316 316 318 332 348 347 347 344
316 315 316 316 316 315 316 316 317 317 319 320 321 321 320 320 311 317 319 320 321 319 318 318 317 318 319 318 316 319 316 316 314 315 314 315 314 315 316 316 317 341 345 344 344
319 317 316 316 315 315 315 315 316 316 319 321 321 321 322 322 321 314 318 320 321 321 319 317 319 321 322 322 319 319 318 319 318 317 317 316 316 315 313 314 314 331 344 344 343
318 318 317 316 315 314 314 313 314 316 320 321 322 321 321 323 317 317 321 321 322 320 321 321 322 323 324 323 320 318 319 318 319 319 318 318 317 316 317 315 315 320 343 343 342
312 315 317 316 315 314 314 313 313 316 320 321 321 320 319 321 316 317 317 319 320 320 321 322 323 323 323 324 321 320 320 319 319 320 319 318 317 317 317 315 313 313 328 341 341
314 312 314 315 315 314 313 313 314 318 321 320 321 319 321 319 318 319 319 319 319 322 322 323 323 323 324 322 319 320 320 321 319 320 319 318 320 318 316 314 314 313 314 339 340
319 314 312 313 314 313 313 314 318 320 321 321 320 317 319 318 319 322 322 322 322 323 323 323 323 323 323 323 322 320 322 321 321 320 320 317 320 319 316 315 314 313 312 325 338
321 318 313 312 313 313 314 318 320 321 322 319 317 317 316 318 319 323 322 322 323 322 322 322 321 320 319 322 326 323 322 321 321 320 321 320 320 319 318 317 316 315 313 312 334
322 320 316 313 313 314 318 321 316 317 315 319 318 318 317 320 321 321 322 323 320 321 323 320 323 322 324 321 323 322 323 323 321 321 321 321 320 319 319 318 317 316 315 314 317
323 321 319 315 314 315 319 319 318 316 318 316 319 317 318 318 321 320 320 319 320 321 317 318 322 321 320 321 321 322 323 323 321 320 324 321 320 320 319 319 317 317 317 317 313
323 323 320 317 316 319 319 320 318 318 321 321 318 320 320 320 322 321 318 318 319 319 318 318 320 319 320 320 322 322 323 322 323 324 322 321 322 322 320 319 319 318 317 317 315
323 323 320 318 317 318 318 319 319 319 322 321 322 321 320 321 323 320 320 317 317 319 320 320 320 320 321 322 322 324 321 322 322 324 326 320 325 321 320 320 319 318 315 315 316
322 323 321 319 319 318 318 319 319 318 328 319 321 320 320 322 322 322 320 320 323 322 319 321 321 321 322 321 321 322 320 320 321 322 321 321 321 319 319 321 320 317 316 315 316
321 322 321 319 318 318 318 319 318 319 321 321 320 319 323 322 321 317 321 319 320 322 321 321 319 320 320 320 318 317 317 317 317 319 322 322 321 319 318 321 319 318 317 316 316
322 321 320 319 318 317 317 316 318 321 320 322 320 320 323 325 324 317 319 320 322 326 326 323 323 320 320 322 317 316 317 320 321 322 322 321 321 320 319 318 317 316 316 316 315
320 320 320 318 318 317 317 316 320 319 322 321 319 319 322 325 325 317 317 319 317 319 319 325 325 321 319 320 321 315 317 320 324 324 323 321 323 323 318 316 313 310 311 312 314
319 317 317 316 318 316 319 320 322 320 319 320 319 320 321 321 324 324 319 317 318 316 320 320 322 318 317 319 320 320 318 317 321 320 316 321 322 322 322 320 315 314 309 310 310
316 315 315 315 316 317 322 323 319 319 318 319 321 320 322 323 320 324 321 318 318 317 316 317 319 316 315 315 316 320 317 323 322 325 326 323 321 321 319 318 314 311 309 308 310
315 313 306 312 314 318 318 313 318 317 318 320 322 318 318 320 320 322 320 317 317 315 316 315 316 316 315 315 315 316 319 321 323 320 323 320 317 316 315 312 312 311 309 308 309
309 311 302 306 317 306 316 318 317 318 315 317 315 320 316 317 319 320 319 318 314 314 316 314 315 317 316 314 313 315 316 318 323 322 319 315 316 315 311 309 310 308 306 306 308
305 303 302 303 317 309 311 315 316 317 314 314 314 311 316 314 315 318 317 314 313 312 314 312 313 313 314 315 313 312 312 313 315 314 318 323 316 313 309 309 308 306 306 304 303
303 306 299 299 300 310 313 316 316 313 314 313 311 309 309 310 312 317 316 315 311 309 310 310 310 312 317 314 310 310 308 308 313 310 314 315 312 311 309 309 310 309 306 304 303
302 302 303 305 303 309 311 312 314 314 312 311 310 310 311 311 314 316 314 312 310 309 308 307 308 308 310 310 310 309 309 308 308 310 313 309 311 308 306 306 305 304 303 303 303
301 301 304 302 304 306 307 308 312 312 311 312 312 311 309 309 312 314 313 311 310 308 309 308 310 306 309 309 309 308 306 307 307 307 307 305 305 304 303 303 303 303 304 304 306
301 303 304 303 303 307 306 308 308 309 309 310 310 307 305 304 306 307 309 309 309 308 309 309 310 309 310 308 307 306 306 307 306 306 306 306 305 304 304 305 306 305 306 305 306